Wind_Speed
18 14 14 15 14 13 12 11 13 13 12 11 12 12 13 14 16 18 19 19 19 19 19 18 17 16 16 15 14 15 15 14 13 12 12 12 12 13 14 15 17 17 18 19 19 20 21 22 23 25 26 26 27 27 27 27 28 29 29 29 28 28 28
16 13 12 14 14 12 12 11 12 11 11 10 10 10 11 12 14 16 18 19 20 21 20 20 19 18 17 16 15 15 15 14 13 12 13 13 13 13 14 15 16 17 18 19 20 21 22 23 24 26 27 28 29 30 31 31 32 33 33 31 30 31 31
18 15 13 14 14 13 13 11 11 11 11 11 11 10 10 11 13 15 17 19 20 21 21 21 21 20 19 17 16 15 15 14 13 13 14 14 14 14 15 16 18 19 20 21 21 22 23 23 24 26 27 28 30 32 33 34 35 36 36 35 33 32 32
18 13 11 13 13 14 14 12 12 13 12 13 12 11 11 11 12 14 15 16 18 18 19 20 20 20 18 17 16 16 15 14 14 14 14 15 15 16 17 18 20 22 23 24 23 23 23 24 25 26 27 28 30 32 34 35 36 38 38 37 36 34 33
16 13 10 11 12 12 13 12 13 14 13 13 13 12 12 12 12 12 13 14 15 16 17 17 17 16 16 16 16 15 14 14 14 14 15 16 17 17 18 20 22 24 25 25 24 24 25 25 26 28 29 30 33 34 35 35 35 36 38 38 37 35 33
15 13 11 11 12 13 13 13 15 15 14 14 13 13 14 14 12 12 13 14 14 15 15 14 14 14 15 15 14 14 13 14 14 15 16 17 18 19 20 21 23 24 25 25 25 25 26 27 28 30 31 33 35 35 35 35 34 34 37 38 34 31 32
15 14 13 13 14 15 15 15 17 17 16 15 14 14 14 14 13 13 14 14 14 14 13 12 13 13 14 14 13 14 14 14 15 16 17 17 18 20 22 22 23 25 25 24 24 26 27 28 29 31 32 33 33 33 34 34 32 32 35 33 27 27 31
15 14 14 15 17 19 18 18 20 20 19 18 16 15 15 15 14 14 14 14 15 13 12 12 12 13 14 14 14 14 14 14 15 16 18 19 20 23 25 24 25 27 26 25 25 26 27 28 30 31 31 31 32 34 35 33 29 29 28 25 23 26 29
16 15 15 16 19 20 20 21 22 22 22 21 18 17 16 15 14 14 14 14 14 12 12 12 13 14 14 15 15 15 15 15 16 17 19 21 22 25 26 27 27 29 29 27 25 26 27 29 30 30 31 29 29 32 33 30 27 23 20 22 25 26 27
18 17 18 19 21 21 20 21 25 25 24 22 20 19 18 15 14 14 14 14 14 13 13 13 14 15 15 15 15 15 16 16 17 19 20 21 23 25 27 28 28 30 30 28 25 26 28 29 30 31 31 28 25 27 28 28 25 19 19 25 27 26 26
17 17 20 22 23 23 21 21 25 27 25 24 23 22 21 17 15 14 14 15 15 14 14 15 15 15 14 14 15 15 16 17 18 18 19 20 22 24 27 28 28 30 30 28 26 26 29 31 30 31 32 29 26 25 24 25 24 22 23 27 29 28 28
18 18 20 23 25 24 21 20 23 25 25 25 24 24 23 20 17 15 15 15 15 15 15 15 15 14 13 14 14 15 16 17 18 18 19 20 22 25 28 29 30 32 32 29 26 27 30 32 32 33 34 33 31 28 25 25 25 27 28 29 30 30 29
21 21 21 23 25 25 22 20 23 24 25 25 25 25 25 22 19 17 16 15 15 14 14 14 13 12 11 12 13 14 16 17 17 18 19 21 23 26 29 30 32 33 31 27 26 27 31 34 35 34 31 26 23 23 25 25 26 29 31 31 32 33 31
21 23 24 24 26 26 23 22 25 26 25 26 27 26 25 22 20 19 17 16 14 14 13 12 11 10 11 12 14 15 16 17 18 20 21 23 25 28 31 33 36 36 33 31 31 31 33 35 36 32 24 17 18 20 22 23 24 28 32 33 34 34 33
21 24 26 26 27 28 26 26 27 26 26 28 28 27 25 23 21 19 17 15 14 13 12 11 11 12 14 16 18 19 20 20 21 23 24 26 28 31 34 36 39 38 33 35 36 33 34 35 36 34 27 22 25 29 24 21 22 26 31 34 34 33 33
21 25 27 28 29 29 29 28 27 27 28 29 27 25 24 22 20 19 17 15 12 11 11 11 12 14 16 18 20 21 22 23 24 25 27 29 31 35 37 39 42 39 32 33 35 31 32 35 35 32 27 26 30 32 25 20 21 25 30 33 33 32 32
22 25 27 29 29 30 30 29 27 27 28 27 24 21 21 21 19 18 16 14 12 12 12 13 14 16 17 19 21 22 24 25 26 28 30 32 34 38 40 41 43 41 36 35 35 31 31 33 30 26 23 24 28 28 25 22 22 25 30 33 32 31 31
23 24 26 27 28 30 30 27 26 26 26 24 22 19 18 19 18 17 16 15 14 15 15 16 17 19 20 21 22 23 24 26 27 29 31 34 37 40 42 43 45 44 39 37 35 32 32 32 30 27 27 26 26 26 26 24 23 26 31 33 31 31 31
23 24 25 26 28 29 28 25 24 25 24 23 23 21 19 20 20 20 19 18 18 19 19 19 20 21 23 24 24 25 26 27 29 31 33 36 38 41 43 45 45 44 41 37 34 33 32 30 30 30 29 27 26 26 26 26 25 27 31 33 32 31 31
26 26 26 26 27 27 25 24 25 26 26 26 25 24 23 23 23 23 22 22 22 23 23 23 23 24 25 26 26 27 28 29 31 33 35 37 40 42 44 45 45 44 41 38 35 33 31 30 29 29 28 27 26 27 26 27 27 29 32 34 33 32 32
30 29 27 26 25 24 24 25 26 28 29 30 29 28 27 27 26 25 24 24 26 27 27 26 26 26 27 28 29 30 31 32 34 35 37 39 41 43 45 46 45 42 40 38 36 33 31 29 28 28 27 26 27 27 27 27 29 30 32 33 33 33 32
34 31 30 28 26 24 25 26 28 30 33 34 34 32 31 29 28 26 26 27 29 30 30 29 28 28 30 31 33 34 35 35 36 38 39 40 42 44 45 45 44 40 38 37 36 34 32 30 28 27 27 27 28 27 26 28 29 30 31 32 32 32 30
38 36 34 31 29 27 28 30 32 35 38 38 37 35 33 32 31 29 29 30 31 33 34 32 30 31 32 34 35 37 38 38 39 40 42 43 45 46 46 44 41 38 37 36 36 35 34 31 29 28 28 28 28 26 26 28 28 27 28 30 30 29 29
40 38 36 34 31 30 32 34 36 39 42 41 38 37 35 34 34 32 32 33 33 35 36 34 33 33 34 36 37 39 40 40 41 43 45 46 47 47 45 41 38 35 35 36 36 35 34 32 30 29 29 30 29 26 25 26 25 24 26 27 27 28 30
40 38 37 36 34 33 35 36 38 41 43 42 40 39 38 37 36 35 35 36 37 38 37 36 35 35 36 38 39 41 42 43 44 47 48 48 46 44 42 38 35 34 34 36 36 35 33 32 31 30 31 31 28 24 22 22 22 22 23 24 24 27 30
39 38 38 38 37 36 37 38 41 43 44 44 42 41 40 39 38 37 37 39 40 40 38 37 37 38 39 40 41 43 44 45 47 50 50 47 43 41 39 36 34 33 34 35 35 34 32 32 31 31 31 30 25 20 19 21 23 24 25 25 25 27 31
40 38 38 38 38 38 39 40 42 44 46 45 44 42 41 40 39 38 39 42 44 42 40 39 40 41 43 44 44 44 45 46 49 51 48 44 41 39 37 35 34 34 35 35 35 34 33 33 32 32 30 27 23 21 21 23 25 27 28 28 28 30 33
41 39 39 39 38 39 39 40 42 44 46 45 44 43 42 41 40 40 42 44 45 43 41 41 43 46 48 48 47 46 46 49 52 51 45 41 40 39 36 34 34 35 36 37 36 35 35 34 33 32 30 27 26 26 27 27 28 29 30 31 32 33 33
41 40 41 41 40 40 40 41 42 43 44 44 45 45 44 43 42 42 44 45 44 44 44 44 46 48 49 47 48 48 50 51 52 48 43 41 39 38 36 35 36 37 38 38 38 37 36 35 35 33 32 31 31 31 30 30 31 30 30 32 34 35 34
40 42 43 43 42 41 40 40 41 42 44 46 47 47 46 46 45 44 45 45 45 45 46 46 48 49 48 48 50 51 52 51 49 45 42 40 38 37 37 37 37 38 39 39 39 38 37 37 36 35 34 34 34 34 33 33 31 30 31 33 35 36 37
42 44 43 43 42 41 40 41 43 45 47 49 49 50 50 49 46 44 44 45 45 45 46 47 48 49 50 51 52 51 49 47 45 42 40 39 38 38 38 37 37 38 39 39 39 39 38 38 38 38 37 37 36 35 35 34 32 31 32 35 36 37 39
44 44 43 41 40 40 42 43 45 47 49 50 51 51 51 47 44 43 44 46 45 44 45 47 49 50 52 52 50 47 45 44 42 40 39 39 40 40 39 37 37 38 39 40 40 40 40 40 40 40 39 38 38 38 36 33 32 33 35 37 38 40 42
43 43 42 40 40 41 44 46 47 48 50 51 52 51 48 44 42 43 44 44 43 44 46 48 50 50 51 50 47 44 42 42 41 40 40 41 41 40 38 37 38 38 39 40 41 41 42 41 40 40 39 39 40 39 36 32 32 34 36 39 41 43 44
42 41 41 40 40 41 43 45 47 48 50 52 52 50 47 43 43 44 44 43 43 45 46 47 47 46 46 45 43 42 41 41 41 41 42 42 40 38 38 38 38 39 40 41 41 42 42 42 41 40 40 40 41 40 36 33 33 35 37 40 42 43 43
42 42 42 41 42 43 45 47 48 49 50 51 52 50 46 43 43 43 43 43 44 45 45 44 43 42 41 40 40 40 40 41 42 43 42 41 39 38 38 39 40 41 41 41 41 42 43 43 42 42 42 42 42 41 39 37 36 37 39 40 41 41 41
44 44 43 44 46 47 47 48 48 48 48 48 48 47 45 44 43 44 44 45 45 44 43 42 41 40 40 39 40 40 41 42 43 43 41 40 39 39 39 40 41 41 41 41 42 42 43 43 43 42 43 44 44 43 42 41 40 39 39 38 39 39 40
46 46 46 46 47 48 47 47 47 47 46 47 47 47 45 45 45 45 45 45 45 44 42 42 41 41 41 41 41 41 42 42 42 41 41 41 41 41 41 41 42 42 42 42 42 42 43 43 43 43 43 43 43 43 42 41 40 38 38 37 37 38 38
47 48 48 48 48 48 48 47 46 46 47 48 48 47 44 44 44 44 44 44 43 42 42 42 42 43 43 43 43 42 41 41 42 42 43 43 43 42 42 42 43 43 43 43 43 43 44 44 44 44 43 43 43 42 40 39 37 36 36 36 36 37 38
Wind_Direction
245 255 257 242 232 234 235 244 255 261 267 270 270 268 264 260 255 254 254 253 252 250 249 250 255 263 267 269 273 275 273 271 270 272 277 286 295 302 308 310 311 311 311 312 313 313 311 309 308 307 307 307 308 307 305 302 299 298 299 299 298 295 293
253 267 265 249 246 247 247 252 256 260 268 272 275 276 274 269 263 259 257 254 253 252 252 254 259 263 264 266 270 271 267 264 264 267 275 286 295 300 305 308 311 311 310 310 310 309 307 306 306 306 306 307 307 308 306 304 301 299 297 296 294 293 292
254 268 264 250 249 250 251 258 260 262 270 276 280 280 278 276 269 265 262 259 258 257 257 258 259 260 260 263 265 263 261 259 259 266 277 287 293 298 304 308 309 309 308 308 308 306 304 303 304 305 306 306 306 306 304 302 302 301 298 294 289 288 289
248 254 248 242 246 251 257 266 267 267 270 273 279 282 283 281 276 272 269 265 262 259 257 256 256 257 258 257 256 256 257 256 260 270 279 286 292 298 305 307 307 307 306 307 308 308 307 308 309 311 311 309 307 305 303 301 301 301 300 295 288 285 287
231 227 228 241 252 258 265 270 267 266 267 270 278 285 286 286 283 275 267 265 264 260 256 255 254 253 250 248 249 252 253 257 265 275 282 289 295 301 306 307 305 305 305 308 312 312 312 314 316 315 314 312 310 309 306 304 304 302 301 298 294 289 288
214 219 229 241 251 257 261 261 259 261 265 269 278 288 290 291 287 273 262 261 261 258 255 252 249 243 241 243 246 249 254 261 270 277 284 292 298 302 305 305 305 307 309 313 315 311 309 312 314 313 312 311 310 308 307 306 306 306 305 305 304 296 288
212 219 230 237 241 246 250 251 254 259 265 269 278 289 293 290 283 272 263 256 253 251 248 244 242 240 241 243 245 250 257 264 273 280 286 291 296 301 302 304 308 310 312 315 314 309 308 308 309 311 312 311 309 307 306 306 306 307 309 307 302 292 284
220 223 229 234 234 235 238 244 252 259 265 270 277 288 293 287 280 275 266 256 252 249 245 243 243 242 243 244 247 253 260 267 275 281 285 288 294 301 302 303 309 312 311 313 313 310 310 309 307 309 311 311 310 307 305 305 302 302 303 297 285 281 280
228 234 237 238 236 236 238 241 246 255 265 272 277 283 288 285 279 275 267 258 255 250 243 241 240 241 244 246 250 256 262 269 276 280 285 289 295 301 302 302 307 311 311 313 314 311 309 308 307 309 311 310 308 308 306 304 300 295 289 283 276 275 278
229 236 241 243 243 247 250 245 245 253 265 273 275 279 284 282 274 269 264 256 250 245 241 240 241 244 248 251 257 263 268 275 280 284 289 292 297 303 304 305 308 310 311 311 310 308 305 306 307 308 308 304 303 311 313 307 300 286 273 274 272 271 278
230 236 240 241 243 250 257 252 249 255 263 269 272 276 281 279 268 261 257 252 247 245 245 246 250 254 257 262 268 273 277 280 284 287 291 295 301 306 306 307 309 310 309 307 305 305 304 304 306 307 304 297 292 302 313 310 299 284 272 271 269 271 282
227 235 237 239 242 248 254 252 250 255 260 266 270 273 276 275 267 260 256 253 251 250 251 253 257 262 266 271 276 279 281 282 284 287 291 297 305 308 307 309 310 310 311 308 304 306 306 304 304 307 307 301 288 285 297 303 294 284 276 271 270 274 283
227 233 235 237 242 248 252 251 253 256 259 264 267 269 272 273 269 265 261 258 256 253 253 256 261 266 272 277 282 284 284 285 286 288 293 299 304 308 310 312 313 311 311 311 306 306 308 304 301 304 309 312 301 286 289 294 285 280 278 275 274 276 281
225 231 233 236 243 249 250 248 251 255 258 262 263 266 271 272 269 268 265 264 261 256 254 257 263 271 282 290 293 294 293 294 295 296 298 302 306 309 312 313 311 306 305 308 308 308 309 304 301 301 299 307 324 314 298 290 280 275 276 275 276 278 282
223 230 233 237 244 248 246 244 248 253 255 258 261 266 271 270 267 266 266 267 266 263 262 264 273 285 293 297 297 297 298 300 302 302 303 306 309 312 315 314 311 310 309 308 308 309 310 304 301 299 284 277 308 320 310 291 277 272 274 276 278 281 284
229 230 231 236 243 245 243 243 247 250 252 256 260 266 267 265 264 264 263 264 264 265 268 274 285 294 297 298 298 298 300 301 301 302 302 304 308 312 315 314 315 319 318 310 308 310 310 306 305 303 289 278 298 313 311 294 279 273 275 277 279 284 287
232 230 230 236 241 240 239 241 245 246 248 254 259 262 261 260 262 263 259 256 258 264 271 279 291 297 298 300 301 302 303 303 303 302 300 302 307 311 314 315 316 320 318 311 310 312 311 310 309 308 305 300 302 307 305 296 283 276 277 278 279 285 287
231 230 230 233 235 235 236 238 240 243 247 253 258 261 262 262 263 264 260 258 263 271 277 282 290 294 295 299 302 304 305 304 304 303 301 302 306 309 312 314 314 315 313 310 309 310 310 310 306 305 309 309 306 302 299 294 286 278 277 277 278 282 283
226 225 224 227 230 232 235 236 239 244 249 256 261 265 268 269 268 269 268 269 273 279 282 285 289 292 293 296 299 301 302 301 302 303 302 303 305 308 311 312 311 310 308 305 304 304 306 305 300 300 305 307 304 300 297 292 285 277 274 275 276 279 280
218 218 219 223 227 228 229 232 238 243 248 255 262 266 268 270 271 273 275 276 277 280 283 286 289 291 292 294 296 297 297 298 299 301 303 304 306 308 309 309 308 306 303 301 300 300 301 300 297 299 302 303 301 298 295 288 279 273 273 274 277 279 279
214 216 218 223 227 226 228 234 241 245 251 258 264 265 266 268 270 274 276 276 277 278 280 283 287 290 292 293 295 296 296 296 298 301 304 305 306 307 306 306 306 303 299 299 299 298 298 299 300 300 301 300 298 295 292 283 274 271 274 276 279 279 276
215 217 219 225 230 231 234 239 241 244 250 255 259 261 262 265 269 273 274 273 274 275 277 281 285 287 290 292 294 296 296 296 299 302 304 306 306 305 304 303 302 299 296 297 298 298 299 301 302 301 300 300 299 295 287 278 273 273 275 277 279 276 269
218 219 220 223 227 229 234 235 234 237 242 246 252 257 261 265 270 273 272 271 272 274 277 281 283 284 288 291 292 294 295 295 299 302 304 305 305 305 303 301 298 295 294 297 298 298 300 302 302 302 301 302 299 292 281 275 273 273 275 277 277 271 267
219 221 222 222 222 225 232 234 233 236 241 247 253 259 262 267 270 271 271 271 271 272 276 280 281 283 286 288 290 292 293 294 299 302 304 305 305 305 303 299 296 294 294 297 299 299 300 301 301 302 303 303 299 289 276 269 268 269 272 275 273 269 271
217 219 221 222 222 224 231 236 237 239 245 252 257 260 263 266 269 270 270 271 270 271 275 279 281 282 284 286 290 292 292 293 298 301 304 304 304 303 301 297 296 297 298 298 299 298 299 300 301 302 304 303 298 287 272 263 263 266 270 271 270 271 277
217 219 222 225 226 227 230 235 238 241 246 251 256 260 263 267 268 268 268 269 269 270 274 278 280 281 283 285 289 292 291 292 296 300 302 302 301 299 297 296 298 300 299 298 298 297 297 298 299 301 304 301 294 285 276 269 266 266 270 273 275 279 285
218 220 224 228 230 232 233 236 239 241 244 249 254 259 264 265 265 265 265 267 269 271 274 277 278 282 284 285 287 290 290 291 294 298 299 298 297 296 294 295 297 299 298 297 296 295 295 296 297 300 302 297 289 289 291 284 277 274 274 276 280 286 290
221 222 226 230 233 236 238 240 242 244 246 250 254 257 260 260 259 259 261 264 268 271 273 276 280 285 286 285 285 288 289 290 294 296 295 294 295 294 293 294 296 297 297 296 294 294 294 295 297 299 299 293 289 293 296 294 290 286 279 277 280 286 289
222 224 228 231 235 239 242 244 246 248 249 251 252 254 255 254 254 255 259 263 267 270 273 277 282 285 285 283 284 286 288 290 293 294 293 293 294 293 293 293 295 296 296 294 293 293 294 295 296 298 298 295 294 295 298 298 296 289 280 277 281 285 287
225 228 231 233 236 241 245 248 249 250 250 249 250 250 250 250 250 252 256 262 267 271 275 279 280 281 283 283 285 286 288 290 291 292 293 293 292 292 293 293 294 294 294 293 292 292 293 294 296 297 297 297 297 298 300 301 297 288 280 278 280 283 286
227 230 232 234 238 243 246 246 246 246 246 246 247 247 247 247 248 252 259 267 271 273 275 277 278 280 282 283 284 286 287 289 290 292 293 293 292 293 293 294 293 293 292 291 291 292 293 294 296 297 297 298 300 301 302 300 294 286 281 279 280 283 286
228 230 232 236 240 243 244 243 243 244 246 247 247 247 247 249 254 261 268 273 273 272 274 277 280 281 281 281 283 286 286 287 288 290 291 291 291 292 292 292 292 292 291 291 291 292 293 294 295 296 297 299 302 303 302 296 289 285 283 282 283 284 286
229 231 234 237 240 240 239 239 240 242 245 245 245 246 249 254 261 267 270 271 270 271 274 277 279 281 281 281 284 284 283 284 285 286 288 289 289 289 290 291 291 291 290 291 292 292 293 294 295 296 297 299 302 302 298 290 284 282 283 283 283 284 286
230 232 233 236 238 240 240 241 244 248 251 251 250 252 255 257 261 265 266 266 268 272 274 276 278 280 281 282 282 281 280 280 282 283 285 286 286 287 288 289 289 289 290 291 292 292 293 294 296 297 298 298 299 299 295 287 281 280 281 281 282 284 286
228 230 231 234 239 243 247 249 253 256 258 258 258 258 258 257 258 261 262 265 269 272 274 276 278 279 280 279 278 277 276 277 279 281 282 283 285 287 288 288 288 289 290 291 291 292 293 296 297 298 298 298 297 297 295 290 285 284 284 283 284 286 287
227 231 235 241 245 247 249 252 254 255 255 254 255 256 255 253 256 259 262 266 270 272 273 274 275 276 277 276 275 274 275 276 278 280 282 284 286 288 288 289 289 289 290 291 292 293 294 296 296 296 297 296 295 295 294 292 289 288 287 287 286 287 287
234 238 243 247 248 250 251 253 254 254 253 253 253 252 251 252 256 261 265 267 269 269 270 271 273 274 275 275 274 274 276 277 279 282 284 286 287 288 288 289 290 290 291 291 292 293 294 294 294 294 294 294 293 294 293 292 290 289 289 288 287 287 288
240 243 246 248 249 252 253 254 254 255 256 255 253 251 253 256 260 263 265 265 265 266 268 270 272 273 274 274 275 276 277 279 281 284 285 286 287 288 289 290 291 291 291 291 292 292 292 293 293 293 292 292 292 292 291 290 288 288 287 288 288 289 291
Height
5905 5905 5905 5905 5904 5904 5904 5904 5904 5904 5905 5905 5905 5905 5906 5906 5907 5908 5908 5909 5909 5910 5910 5910 5911 5912 5912 5912 5912 5912 5913 5913 5913 5912 5912 5911 5911 5911 5911 5910 5909 5908 5907 5906 5905 5904 5903 5902 5900 5899 5898 5897 5896 5895 5894 5893 5892 5891 5890 5889 5888 5887 5886
5904 5904 5905 5905 5904 5904 5903 5903 5903 5903 5903 5903 5903 5904 5904 5905 5905 5906 5906 5906 5907 5907 5908 5908 5909 5909 5910 5910 5910 5910 5910 5911 5911 5910 5910 5910 5910 5910 5909 5908 5907 5906 5905 5904 5903 5902 5900 5899 5898 5896 5895 5894 5893 5892 5890 5889 5888 5887 5886 5885 5884 5883 5882
5902 5903 5903 5903 5903 5903 5902 5902 5902 5902 5902 5902 5902 5903 5903 5903 5903 5903 5903 5904 5904 5904 5905 5906 5906 5907 5907 5908 5908 5908 5908 5908 5908 5908 5908 5908 5907 5907 5907 5906 5905 5903 5902 5902 5901 5900 5898 5897 5896 5894 5893 5891 5890 5889 5887 5886 5884 5883 5882 5881 5880 5879 5878
5901 5902 5901 5901 5901 5901 5901 5901 5901 5901 5900 5900 5901 5901 5901 5902 5901 5901 5901 5901 5901 5902 5902 5903 5903 5904 5905 5905 5905 5905 5906 5906 5906 5906 5906 5905 5905 5905 5904 5903 5902 5900 5899 5898 5898 5897 5895 5894 5893 5892 5890 5889 5887 5885 5883 5882 5880 5878 5877 5876 5875 5875 5874
5899 5900 5900 5899 5900 5899 5899 5900 5900 5899 5899 5899 5899 5899 5899 5899 5899 5899 5899 5899 5899 5899 5899 5900 5901 5901 5902 5902 5902 5903 5903 5903 5903 5903 5903 5903 5902 5902 5901 5900 5899 5897 5896 5895 5894 5893 5892 5891 5890 5889 5887 5885 5883 5881 5879 5878 5876 5874 5872 5871 5870 5870 5870
5896 5897 5897 5898 5898 5897 5898 5898 5898 5898 5898 5898 5898 5898 5897 5897 5897 5897 5897 5897 5897 5897 5897 5898 5898 5899 5899 5900 5900 5901 5901 5901 5901 5901 5900 5900 5899 5899 5898 5897 5896 5895 5893 5892 5891 5889 5889 5888 5886 5885 5884 5882 5880 5878 5876 5873 5872 5870 5868 5866 5865 5865 5865
5893 5895 5895 5896 5896 5896 5896 5896 5896 5896 5896 5896 5896 5896 5896 5895 5895 5895 5895 5895 5895 5895 5896 5896 5896 5897 5897 5898 5898 5898 5898 5898 5898 5898 5898 5897 5896 5895 5894 5893 5892 5891 5890 5889 5888 5886 5885 5884 5883 5882 5881 5879 5876 5874 5872 5869 5867 5866 5865 5862 5861 5861 5860
5891 5892 5893 5893 5893 5893 5893 5893 5893 5894 5894 5894 5894 5894 5894 5893 5893 5893 5893 5893 5893 5893 5894 5894 5895 5895 5895 5896 5896 5896 5896 5896 5896 5896 5895 5894 5894 5892 5891 5890 5889 5889 5888 5887 5885 5884 5882 5881 5879 5879 5877 5875 5872 5869 5867 5865 5863 5862 5861 5859 5858 5857 5855
5888 5889 5890 5890 5890 5890 5891 5891 5891 5891 5892 5892 5892 5892 5892 5892 5891 5891 5891 5891 5892 5892 5893 5893 5893 5893 5894 5894 5894 5894 5894 5894 5894 5893 5893 5892 5891 5890 5888 5887 5887 5886 5884 5884 5882 5881 5880 5878 5876 5875 5874 5872 5869 5866 5863 5861 5860 5859 5857 5856 5854 5853 5851
5885 5886 5887 5887 5887 5887 5888 5889 5889 5888 5889 5890 5890 5890 5890 5890 5890 5890 5890 5890 5890 5891 5891 5891 5891 5891 5892 5892 5892 5892 5892 5892 5891 5891 5890 5889 5888 5887 5886 5885 5884 5882 5881 5880 5879 5878 5877 5876 5874 5873 5871 5869 5867 5864 5861 5859 5857 5855 5853 5852 5850 5849 5848
5882 5883 5884 5884 5884 5885 5886 5887 5887 5886 5887 5887 5887 5887 5887 5888 5888 5888 5888 5888 5889 5889 5889 5889 5889 5890 5890 5890 5890 5889 5889 5889 5888 5887 5887 5886 5886 5884 5883 5882 5880 5878 5877 5877 5876 5875 5874 5872 5871 5869 5867 5866 5864 5862 5859 5857 5854 5852 5850 5848 5847 5846 5845
5878 5880 5881 5881 5882 5882 5883 5884 5884 5884 5885 5885 5885 5885 5885 5885 5886 5886 5886 5887 5887 5888 5887 5887 5887 5888 5888 5887 5887 5887 5886 5885 5885 5884 5884 5883 5882 5880 5878 5877 5876 5875 5874 5873 5873 5872 5871 5869 5867 5865 5862 5860 5859 5858 5856 5854 5852 5849 5847 5845 5844 5843 5843
5874 5876 5877 5878 5879 5879 5881 5882 5881 5881 5882 5882 5882 5882 5882 5882 5883 5883 5884 5884 5885 5885 5885 5885 5885 5885 5885 5885 5884 5884 5883 5882 5882 5882 5881 5880 5879 5877 5875 5874 5872 5871 5870 5870 5870 5869 5868 5865 5863 5861 5859 5856 5854 5854 5853 5851 5848 5846 5844 5842 5840 5840 5840
5870 5872 5873 5874 5875 5876 5878 5879 5878 5879 5879 5879 5880 5880 5880 5880 5880 5881 5881 5882 5882 5883 5882 5883 5883 5883 5882 5882 5881 5881 5880 5880 5879 5878 5878 5877 5875 5874 5872 5870 5867 5866 5867 5867 5867 5865 5863 5861 5859 5858 5857 5853 5851 5851 5850 5847 5844 5842 5840 5838 5837 5836 5836
5866 5868 5869 5871 5872 5873 5875 5875 5875 5876 5876 5876 5877 5877 5877 5877 5877 5878 5879 5879 5880 5880 5880 5880 5880 5880 5879 5879 5878 5878 5877 5877 5876 5875 5874 5873 5871 5870 5869 5866 5862 5863 5864 5863 5861 5861 5859 5856 5854 5854 5853 5850 5848 5847 5845 5842 5840 5838 5836 5834 5833 5833 5832
5861 5863 5865 5867 5868 5870 5871 5872 5872 5873 5873 5873 5874 5874 5874 5875 5875 5876 5876 5877 5877 5877 5877 5877 5877 5876 5876 5875 5875 5874 5874 5873 5872 5871 5870 5869 5867 5866 5864 5861 5858 5860 5862 5859 5857 5857 5855 5852 5850 5847 5847 5846 5845 5843 5840 5837 5834 5833 5832 5831 5830 5829 5828
5858 5859 5861 5863 5865 5866 5867 5868 5869 5869 5870 5870 5871 5871 5872 5872 5873 5873 5873 5874 5874 5874 5874 5874 5873 5873 5873 5872 5871 5871 5870 5869 5868 5867 5866 5864 5863 5862 5860 5857 5855 5856 5857 5855 5853 5853 5850 5847 5844 5842 5841 5841 5840 5838 5835 5832 5829 5828 5827 5826 5825 5824 5824
5855 5856 5857 5859 5861 5862 5863 5865 5866 5866 5867 5868 5868 5868 5869 5869 5870 5870 5871 5871 5871 5871 5871 5871 5870 5870 5869 5869 5868 5867 5867 5866 5865 5864 5862 5860 5859 5858 5856 5854 5852 5851 5852 5851 5848 5846 5845 5843 5840 5838 5837 5836 5835 5833 5830 5827 5825 5824 5822 5821 5821 5820 5820
5851 5852 5854 5856 5857 5859 5860 5862 5863 5863 5864 5864 5864 5865 5866 5866 5867 5867 5867 5868 5868 5868 5868 5867 5867 5867 5866 5865 5865 5864 5864 5862 5861 5860 5859 5857 5856 5854 5852 5850 5848 5846 5846 5846 5845 5842 5840 5839 5837 5835 5833 5832 5830 5828 5825 5823 5821 5819 5818 5816 5816 5816 5816
5847 5848 5850 5852 5853 5855 5857 5858 5859 5859 5860 5860 5861 5861 5862 5863 5863 5864 5864 5864 5864 5864 5864 5863 5863 5863 5863 5862 5861 5861 5860 5859 5857 5856 5855 5854 5852 5850 5847 5845 5843 5842 5840 5840 5840 5838 5836 5834 5833 5831 5829 5828 5826 5823 5821 5819 5816 5815 5814 5812 5812 5812 5812
5843 5845 5846 5848 5850 5852 5853 5855 5855 5856 5856 5856 5856 5858 5858 5859 5860 5860 5861 5861 5861 5860 5860 5860 5860 5859 5859 5858 5858 5857 5856 5855 5853 5852 5851 5849 5847 5845 5843 5840 5838 5837 5835 5834 5834 5833 5831 5830 5828 5827 5825 5823 5821 5819 5817 5814 5812 5811 5810 5809 5809 5809 5808
5839 5841 5842 5844 5846 5848 5850 5851 5852 5852 5851 5851 5852 5853 5854 5855 5856 5857 5857 5857 5857 5857 5856 5856 5856 5856 5855 5854 5853 5852 5851 5850 5849 5847 5846 5844 5842 5840 5837 5835 5833 5832 5830 5829 5828 5826 5825 5824 5823 5821 5819 5817 5816 5814 5812 5810 5808 5808 5807 5806 5805 5804 5803
5834 5836 5838 5840 5842 5844 5846 5847 5847 5847 5846 5846 5848 5849 5850 5851 5852 5853 5853 5853 5853 5853 5852 5852 5853 5852 5851 5850 5849 5848 5846 5845 5844 5842 5841 5839 5836 5834 5831 5829 5828 5826 5824 5823 5822 5821 5819 5818 5816 5815 5814 5812 5810 5808 5806 5805 5804 5804 5803 5802 5801 5801 5799
5829 5832 5834 5835 5837 5839 5841 5842 5843 5842 5841 5842 5844 5845 5847 5847 5848 5849 5849 5849 5849 5848 5848 5848 5848 5847 5847 5845 5844 5843 5841 5840 5838 5837 5835 5833 5830 5827 5824 5823 5822 5821 5819 5818 5817 5815 5814 5812 5811 5810 5808 5806 5804 5803 5802 5801 5800 5800 5799 5798 5798 5797 5795
5824 5828 5830 5831 5833 5834 5836 5838 5839 5838 5837 5839 5840 5841 5842 5843 5844 5845 5845 5844 5844 5843 5843 5843 5843 5843 5842 5840 5839 5838 5836 5835 5833 5831 5829 5827 5823 5821 5818 5817 5816 5816 5814 5813 5811 5810 5808 5807 5805 5804 5803 5801 5799 5798 5798 5797 5797 5796 5795 5794 5794 5792 5790
5820 5823 5825 5827 5828 5830 5831 5833 5834 5834 5834 5835 5836 5837 5838 5839 5840 5840 5840 5839 5838 5838 5838 5839 5838 5838 5837 5836 5834 5833 5831 5829 5827 5825 5823 5821 5818 5815 5813 5811 5811 5810 5809 5808 5807 5805 5804 5802 5801 5799 5798 5797 5795 5795 5794 5793 5792 5792 5790 5789 5788 5786 5785
5815 5818 5821 5822 5824 5825 5827 5828 5830 5831 5831 5832 5833 5834 5835 5835 5836 5835 5835 5834 5833 5834 5834 5834 5834 5833 5832 5831 5829 5827 5826 5824 5822 5820 5818 5815 5813 5811 5809 5807 5806 5805 5804 5803 5802 5801 5799 5797 5796 5795 5793 5792 5792 5791 5790 5789 5787 5786 5784 5783 5782 5781 5780
5811 5813 5815 5817 5819 5820 5822 5823 5825 5826 5827 5828 5830 5830 5831 5831 5831 5830 5830 5829 5829 5829 5830 5829 5829 5828 5826 5825 5823 5822 5820 5819 5816 5814 5812 5809 5807 5806 5804 5803 5801 5800 5799 5798 5797 5796 5794 5793 5792 5790 5789 5789 5788 5787 5786 5784 5781 5780 5779 5778 5776 5776 5775
5806 5809 5810 5812 5814 5815 5817 5819 5820 5821 5822 5824 5825 5825 5825 5825 5825 5825 5824 5824 5824 5825 5824 5824 5823 5822 5820 5819 5818 5817 5815 5813 5811 5808 5806 5804 5802 5801 5800 5798 5797 5796 5795 5793 5792 5791 5790 5788 5787 5786 5785 5785 5784 5783 5781 5779 5776 5775 5774 5773 5772 5771 5770
5802 5804 5806 5808 5809 5811 5812 5814 5815 5816 5817 5818 5818 5818 5819 5819 5818 5819 5819 5819 5819 5819 5818 5818 5817 5816 5815 5813 5812 5811 5809 5807 5805 5802 5800 5798 5797 5796 5795 5794 5792 5791 5790 5789 5788 5787 5785 5784 5783 5782 5781 5780 5779 5777 5775 5774 5772 5770 5769 5768 5767 5767 5765
5797 5799 5801 5803 5804 5806 5807 5808 5809 5810 5810 5811 5811 5812 5812 5811 5812 5813 5814 5814 5814 5813 5812 5811 5811 5810 5809 5808 5807 5805 5803 5801 5798 5796 5794 5793 5792 5791 5790 5789 5787 5786 5785 5784 5783 5782 5781 5779 5778 5777 5776 5775 5774 5772 5770 5769 5767 5766 5764 5763 5762 5761 5760
5791 5793 5795 5797 5799 5800 5801 5802 5803 5804 5804 5805 5806 5806 5805 5805 5806 5807 5808 5808 5807 5807 5806 5805 5805 5804 5802 5801 5800 5798 5796 5794 5792 5790 5789 5787 5786 5786 5785 5783 5782 5781 5780 5779 5778 5777 5776 5775 5773 5772 5771 5770 5769 5767 5764 5763 5762 5761 5760 5759 5758 5757 5755
5785 5788 5790 5792 5793 5794 5795 5796 5797 5798 5799 5799 5799 5800 5799 5800 5801 5802 5802 5802 5801 5801 5801 5800 5799 5797 5796 5795 5793 5791 5790 5788 5786 5785 5783 5782 5781 5780 5779 5778 5777 5776 5776 5775 5773 5772 5771 5770 5768 5767 5766 5765 5764 5762 5760 5759 5758 5757 5756 5755 5753 5751 5749
5781 5783 5785 5786 5788 5789 5790 5791 5791 5792 5793 5793 5793 5794 5794 5794 5795 5795 5795 5796 5795 5795 5794 5793 5792 5790 5789 5788 5786 5785 5784 5782 5781 5779 5778 5776 5775 5774 5773 5773 5772 5771 5771 5770 5769 5767 5765 5764 5763 5761 5760 5759 5758 5756 5755 5754 5753 5752 5751 5749 5747 5745 5743
5775 5777 5779 5781 5782 5783 5784 5785 5786 5786 5786 5787 5787 5788 5788 5788 5788 5789 5789 5789 5789 5788 5788 5786 5785 5784 5782 5781 5780 5779 5777 5776 5775 5773 5772 5771 5770 5769 5768 5768 5767 5766 5766 5765 5764 5762 5760 5758 5757 5755 5754 5753 5751 5750 5749 5748 5747 5746 5745 5743 5741 5740 5738
5769 5771 5773 5774 5775 5776 5778 5779 5779 5780 5780 5780 5781 5781 5781 5782 5782 5782 5782 5782 5782 5781 5781 5780 5779 5778 5776 5775 5774 5773 5771 5770 5769 5768 5767 5766 5766 5765 5764 5763 5763 5762 5761 5760 5758 5757 5755 5753 5752 5750 5748 5747 5745 5744 5744 5742 5741 5740 5738 5737 5736 5734 5732
5763 5765 5767 5768 5769 5770 5771 5772 5773 5773 5773 5773 5774 5774 5775 5775 5776 5776 5776 5775 5775 5775 5775 5774 5773 5772 5770 5769 5768 5767 5766 5765 5764 5763 5762 5761 5761 5760 5759 5758 5757 5756 5756 5754 5752 5751 5749 5748 5746 5745 5743 5742 5739 5738 5737 5736 5735 5733 5732 5731 5729 5728 5726
5757 5759 5760 5762 5763 5764 5765 5766 5767 5767 5767 5767 5767 5768 5769 5770 5769 5769 5769 5769 5769 5769 5768 5768 5767 5766 5764 5763 5762 5761 5760 5759 5758 5757 5757 5756 5755 5755 5754 5753 5752 5751 5750 5749 5747 5745 5744 5742 5740 5739 5737 5736 5734 5732 5731 5730 5729 5728 5726 5725 5724 5722 5721